TimeCST,TemperatureF,Dew PointF,Humidity,Sea Level PressureIn,VisibilityMPH,Wind Direction,Wind SpeedMPH,Gust SpeedMPH,PrecipitationIn,Events,Conditions,WindDirDegrees,DateUTC
12:12 AM,38.8,22.6,52,29.93,10.0,SSW,9.2,-,N/A,,Clear,210,2012-12-13 06:12:00
12:32 AM,38.7,22.6,53,29.93,10.0,SSW,10.4,-,N/A,,Clear,200,2012-12-13 06:32:00
12:52 AM,38.5,22.8,53,29.92,10.0,SSW,10.4,-,N/A,,Clear,200,2012-12-13 06:52:00
1:12 AM,38.3,22.6,53,29.93,10.0,SSW,12.7,-,N/A,,Clear,200,2012-12-13 07:12:00
1:32 AM,38.3,22.8,54,29.93,10.0,South,9.2,-,N/A,,Clear,190,2012-12-13 07:32:00
1:52 AM,37.9,22.8,55,29.93,10.0,South,9.2,-,N/A,,Clear,190,2012-12-13 07:52:00
2:12 AM,37.6,22.8,55,29.93,10.0,South,8.1,-,N/A,,Clear,190,2012-12-13 08:12:00
2:32 AM,37.0,22.6,56,29.94,10.0,South,5.8,-,N/A,,Clear,190,2012-12-13 08:32:00
2:52 AM,36.9,22.5,56,29.94,10.0,South,5.8,-,N/A,,Clear,170,2012-12-13 08:52:00
3:12 AM,36.7,22.1,56,29.94,10.0,South,6.9,-,N/A,,Clear,180,2012-12-13 09:12:00
3:32 AM,36.9,21.0,53,29.94,10.0,SSW,10.4,-,N/A,,Clear,200,2012-12-13 09:32:00
3:52 AM,36.3,21.2,54,29.93,10.0,South,5.8,-,N/A,,Clear,170,2012-12-13 09:52:00
4:12 AM,33.8,23.0,65,29.93,10.0,SE,3.5,-,N/A,,Scattered Clouds,130,2012-12-13 10:12:00
4:32 AM,33.4,22.8,65,29.92,10.0,SSE,4.6,-,N/A,,Scattered Clouds,150,2012-12-13 10:32:00
4:52 AM,33.3,22.8,66,29.93,10.0,SSE,3.5,-,N/A,,Clear,160,2012-12-13 10:52:00
5:12 AM,32.9,22.8,66,29.93,10.0,SSE,4.6,-,N/A,,Clear,160,2012-12-13 11:12:00
5:32 AM,32.7,22.1,65,29.93,10.0,SSE,3.5,-,N/A,,Clear,160,2012-12-13 11:32:00
5:52 AM,32.0,22.5,68,29.93,10.0,Calm,Calm,-,N/A,,Clear,0,2012-12-13 11:52:00
6:12 AM,31.5,22.1,68,29.93,10.0,Calm,Calm,-,N/A,,Clear,0,2012-12-13 12:12:00
6:32 AM,30.4,21.7,70,29.94,10.0,Calm,Calm,-,N/A,,Clear,0,2012-12-13 12:32:00
6:52 AM,29.3,21.9,74,29.95,10.0,Calm,Calm,-,N/A,,Clear,0,2012-12-13 12:52:00
7:12 AM,28.9,21.4,73,29.95,10.0,Calm,Calm,-,N/A,,Clear,0,2012-12-13 13:12:00
7:32 AM,27.7,20.8,75,29.95,10.0,Calm,Calm,-,N/A,,Clear,0,2012-12-13 13:32:00
7:52 AM,27.9,21.9,78,29.95,10.0,Calm,Calm,-,N/A,,Clear,0,2012-12-13 13:52:00
8:12 AM,24.1,19.0,81,29.95,10.0,Calm,Calm,-,N/A,,Clear,0,2012-12-13 14:12:00
8:32 AM,27.7,21.9,79,29.96,10.0,Calm,Calm,-,N/A,,Clear,0,2012-12-13 14:32:00
8:52 AM,28.2,21.2,75,29.96,10.0,Calm,Calm,-,N/A,,Clear,0,2012-12-13 14:52:00
9:12 AM,26.6,21.2,80,29.97,10.0,Calm,Calm,-,N/A,Snow,Light Snow,0,2012-12-13 15:12:00
9:32 AM,28.0,21.2,76,29.97,10.0,Calm,Calm,-,N/A,,Clear,0,2012-12-13 15:32:00
9:52 AM,29.1,21.2,72,29.98,10.0,Calm,Calm,-,N/A,,Clear,0,2012-12-13 15:52:00
10:12 AM,29.8,21.4,71,29.99,10.0,Calm,Calm,-,N/A,,Clear,0,2012-12-13 16:12:00
10:32 AM,29.7,21.4,71,29.99,10.0,Calm,Calm,-,N/A,,Clear,0,2012-12-13 16:32:00
10:52 AM,32.0,21.7,66,29.99,10.0,Calm,Calm,-,N/A,,Clear,0,2012-12-13 16:52:00
11:12 AM,32.2,21.4,64,29.99,10.0,Calm,Calm,-,N/A,,Clear,0,2012-12-13 17:12:00
11:32 AM,32.9,21.7,64,29.99,10.0,Calm,Calm,-,N/A,,Clear,0,2012-12-13 17:32:00
11:52 AM,33.1,21.0,61,30.00,10.0,West,3.5,-,N/A,,Clear,270,2012-12-13 17:52:00
12:12 PM,34.0,21.0,59,30.01,10.0,NW,3.5,-,N/A,,Clear,310,2012-12-13 18:12:00
12:32 PM,34.7,21.0,57,30.00,10.0,Calm,Calm,-,N/A,,Clear,0,2012-12-13 18:32:00
12:52 PM,34.7,21.7,59,30.00,10.0,Calm,Calm,-,N/A,,Clear,0,2012-12-13 18:52:00
1:12 PM,35.6,21.7,57,30.01,10.0,Calm,Calm,-,N/A,,Clear,0,2012-12-13 19:12:00
1:32 PM,35.8,21.4,56,30.00,10.0,Calm,Calm,-,N/A,,Clear,0,2012-12-13 19:32:00
1:52 PM,36.1,21.7,56,30.01,10.0,Calm,Calm,-,N/A,,Clear,0,2012-12-13 19:52:00
2:12 PM,36.5,22.3,56,30.01,10.0,North,3.5,-,N/A,,Clear,350,2012-12-13 20:12:00
2:32 PM,36.5,21.7,55,30.01,10.0,NNW,3.5,-,N/A,,Clear,330,2012-12-13 20:32:00
2:52 PM,36.9,21.4,54,30.01,10.0,Calm,Calm,-,N/A,,Clear,0,2012-12-13 20:52:00
3:12 PM,37.0,21.2,53,30.02,10.0,Calm,Calm,-,N/A,,Clear,0,2012-12-13 21:12:00
3:32 PM,36.7,21.4,54,30.02,10.0,Calm,Calm,-,N/A,,Clear,0,2012-12-13 21:32:00
3:52 PM,36.1,22.1,57,30.03,10.0,Calm,Calm,-,N/A,,Clear,0,2012-12-13 21:52:00
4:12 PM,35.6,22.1,58,30.04,10.0,NW,3.5,-,N/A,,Clear,320,2012-12-13 22:12:00
4:32 PM,34.7,23.0,62,30.05,10.0,North,4.6,-,N/A,,Clear,10,2012-12-13 22:32:00
7:12 PM,27.0,22.8,84,30.10,7.0,Calm,Calm,-,N/A,,Clear,0,2012-12-14 01:12:00
7:32 PM,27.7,24.3,87,30.10,7.0,Calm,Calm,-,N/A,,Clear,0,2012-12-14 01:32:00
7:52 PM,26.4,23.5,89,30.10,7.0,Calm,Calm,-,N/A,,Clear,0,2012-12-14 01:52:00
8:12 PM,26.4,23.7,90,30.10,7.0,Calm,Calm,-,N/A,,Clear,0,2012-12-14 02:12:00
8:32 PM,25.5,22.8,89,30.10,5.0,Calm,Calm,-,N/A,,Clear,0,2012-12-14 02:32:00
8:52 PM,25.7,23.5,92,30.09,7.0,Calm,Calm,-,N/A,,Clear,0,2012-12-14 02:52:00
9:12 PM,25.5,23.0,90,30.10,7.0,Calm,Calm,-,N/A,,Clear,0,2012-12-14 03:12:00
9:32 PM,24.3,21.9,91,30.11,7.0,Calm,Calm,-,N/A,,Clear,0,2012-12-14 03:32:00
9:52 PM,24.6,22.5,91,30.11,5.0,Calm,Calm,-,N/A,,Clear,0,2012-12-14 03:52:00
10:12 PM,23.7,21.2,90,30.11,5.0,Calm,Calm,-,N/A,,Clear,0,2012-12-14 04:12:00
10:32 PM,22.6,20.5,91,30.11,5.0,Calm,Calm,-,N/A,,Clear,0,2012-12-14 04:32:00
10:52 PM,25.0,23.0,92,30.12,7.0,Calm,Calm,-,N/A,,Clear,0,2012-12-14 04:52:00
11:12 PM,24.1,20.3,85,30.12,7.0,Calm,Calm,-,N/A,,Clear,0,2012-12-14 05:12:00
11:32 PM,23.9,21.4,90,30.12,5.0,Calm,Calm,-,N/A,,Clear,0,2012-12-14 05:32:00
11:52 PM,23.7,21.6,91,30.12,5.0,Calm,Calm,-,N/A,,Clear,0,2012-12-14 05:52:00